{"data":{"norad_id":68178,"epoch":"2026-05-25T01:18:06.387840Z","epoch_age_seconds":66211,"freshness":"FRESH","line1":"1 68178U 26050M   26145.05424060  .00033371  00000+0  99513-3 0  9998","line2":"2 68178  53.1591 271.4153 0001067  82.5213 277.5911 15.34377137 12381","mean_motion":15.34377137,"eccentricity":0.0001067,"inclination_deg":53.1591,"raan_deg":271.4153,"arg_perigee_deg":82.5213,"mean_anomaly_deg":277.5911,"bstar":0.00099513,"rev_number":1238,"period_min":93.849156460678,"perigee_km":462.04126980067,"apogee_km":463.50111960942,"semimajor_km":6840.908194705,"source":"CELESTRAK","updated_at":"2026-05-25T13:38:21.854578Z"}}